[[{"header":{"parameterUnit":"m.s-1","parameterCategory":1,"la1":30.2991,"la2":30.254,"lo1":-89.0895,"lo2":-89.0444,"dy":0.0017,"dx":0.0017,"nx":28,"ny":28,"refTime":"2025-09-13T03:00:00:Z","depth":0,"parameterNumber":2,"parameterNumberName":"U-component_of_WINDS"},"data":[0,0,0,0,0,0,0,0,0,0,0,0,0,0,0,0,0,0,0,0,0,0,0,0,0,0,0,0,0,0,0,0,0,0,0,0,0,0,0,0,0,0,0,0,0,0,0,0,0,0,0,0,0,0,0,0,0,0,-3.1764,-3.1764,0,-3.1715,-3.1714,-3.1714,-3.1622,-3.162,-3.1619,-3.1617,-3.1566,-3.1566,-3.1566,0,0,0,0,0,0,0,0,0,0,0,0,0,-3.1781,-3.1781,-3.1764,-3.1764,-3.1763,-3.1715,-3.1714,-3.1714,-3.1623,-3.162,-3.1618,-3.1616,-3.1566,-3.1566,-3.1566,0,0,0,0,0,0,0,0,0,0,0,0,0,-3.1757,-3.1781,-3.1764,-3.1712,-3.1707,-3.1715,-3.1714,-3.1714,-3.1623,-3.162,-3.1618,-3.1615,-3.1566,-3.1566,-3.1566,-3.1622,0,0,-3.1568,-3.1568,0,0,0,0,0,0,0,0,-3.1759,-3.1757,-3.172,-3.1715,-3.171,-3.1672,-3.1701,-3.1683,-3.1624,-3.1655,-3.1617,-3.1614,-3.1603,-3.16,-3.1597,-3.162,-3.1617,-3.1568,-3.1568,-3.1568,-3.1568,0,0,0,0,0,0,0,-3.176,-3.1758,-3.1745,-3.172,-3.1713,-3.1691,-3.1685,-3.1698,-3.1644,-3.1652,-3.1645,-3.1641,-3.16,-3.1597,-3.1595,-3.1617,-3.1568,-3.1568,-3.1568,-3.1569,-3.1684,-3.1687,0,0,0,0,0,0,-3.177,-3.176,-3.1746,-3.1743,-3.1728,-3.1693,-3.1686,-3.1687,-3.1644,-3.1635,-3.1643,-3.1636,-3.1597,-3.1595,-3.1593,-3.1655,-3.1568,-3.1569,-3.1569,-3.1682,-3.1685,-3.1688,0,0,0,0,0,0,-3.177,-3.1769,-3.1748,-3.175,-3.1746,-3.1696,-3.1697,-3.1687,-3.1684,-3.1637,-3.1627,-3.1649,-3.1595,-3.1592,-3.1616,-3.1652,-3.1569,-3.1569,-3.1678,-3.1683,-3.1687,-3.178,0,0,0,0,0,0,-3.1771,-3.177,-3.179,-3.1751,-3.1746,-3.1772,-3.17,-3.1688,-3.1685,-3.1676,-3.1641,-3.1632,-3.1593,-3.1616,-3.1616,-3.1651,-3.1569,-3.1675,-3.168,-3.1685,-3.1773,-3.1787,-3.1799,0,0,0,0,0,-3.1772,-3.1818,-3.1791,-3.179,-3.177,-3.1774,-3.1771,-3.1725,-3.1688,-3.1708,-3.1679,-3.1633,-3.1649,-3.1619,-3.1619,-3.1654,-3.1672,-3.1679,-3.1685,-3.1768,-3.1784,-3.1798,0,0,0,0,0,0,-3.1861,-3.1811,-3.1781,-3.1816,-3.18,-3.1758,-3.1781,-3.1744,-3.1737,-3.1729,-3.1673,-3.1665,-3.1696,-3.1678,-3.1646,-3.1707,-3.1654,-3.166,-3.1717,-3.1732,-3.1744,-3.1747,-3.157,0,0,0,0,0,-3.1885,-3.1892,-3.1849,-3.1883,-3.1877,-3.1832,-3.1831,-3.1798,-3.1779,-3.1771,-3.1743,-3.1727,-3.1728,-3.173,-3.1728,-3.1772,-3.1763,-3.1797,-3.1809,-3.182,-3.1825,-3.1848,-3.1862,-3.1709,-3.1709,-3.1709,0,0,-3.1933,-3.1907,-3.1915,-3.1901,-3.1884,-3.1893,-3.1826,-3.1838,-3.1844,-3.1773,-3.1793,-3.1773,-3.1751,-3.1785,-3.1799,-3.1771,-3.1867,-3.1828,-3.1837,-3.1836,-3.1856,-3.1871,-3.1884,-3.1713,-3.1712,-3.1712,0,0,-3.2025,-3.2007,-3.2034,-3.202,-3.1997,-3.1967,-3.1974,-3.1939,-3.1923,-3.1943,-3.189,-3.1898,-3.1901,-3.1887,-3.1881,-3.1974,-3.1932,-3.1976,-3.2039,-3.2062,-3.2074,-3.2085,-3.2117,-3.2129,-3.1982,-3.1982,-3.1982,0,-3.2088,-3.2099,-3.2053,-3.2069,-3.2064,-3.2002,-3.203,-3.2018,-3.1996,-3.1995,-3.1964,-3.1968,-3.1949,-3.198,-3.2003,-3.2,-3.2006,-3.1977,-3.2077,-3.2087,-3.2096,-3.2126,-3.2138,-3.1987,-3.1987,-3.1986,-3.1986,0,-3.2178,-3.2187,-3.2212,-3.2193,-3.2192,-3.2214,-3.2171,-3.2175,-3.2144,-3.2118,-3.214,-3.2116,-3.2109,-3.2114,-3.2083,-3.2141,-3.2125,-3.2087,-3.2031,-3.2116,-3.2143,-3.2155,-3.1995,-3.1993,-3.1991,-3.199,0,0,-3.2319,-3.2277,-3.2287,-3.2278,-3.225,-3.2257,-3.2277,-3.2271,-3.2276,-3.2265,-3.228,-3.2287,-3.2252,-3.2245,-3.2213,-3.2233,-3.2308,-3.2192,-3.2191,-3.2213,-3.2371,-3.2398,-3.2412,-3.2282,-3.2284,-3.2286,-3.2372,0,-3.2404,-3.2435,-3.2395,-3.2435,-3.2444,-3.2388,-3.2406,-3.2391,-3.2369,-3.2373,-3.2348,-3.2353,-3.2308,-3.2303,-3.2322,-3.2295,-3.2339,-3.2289,-3.2295,-3.2296,-3.2299,-3.2426,-3.2454,-3.2536,-3.2383,-3.2385,-3.2386,0,-3.2505,-3.2499,-3.254,-3.2512,-3.2514,-3.2531,-3.2523,-3.2529,-3.2512,-3.2495,-3.249,-3.2451,-3.247,-3.242,-3.2445,-3.2413,-3.2414,-3.2402,-3.2404,-3.24,-3.2343,-3.2424,-3.2562,-3.2573,-3.2402,-3.2401,-3.24,0,-3.2603,-3.2606,-3.2631,-3.2625,-3.2593,-3.2607,-3.2594,-3.2575,-3.2575,-3.2569,-3.2569,-3.2566,-3.2563,-3.2562,-3.2525,-3.2492,-3.2555,-3.2502,-3.2541,-3.2542,-3.2553,-3.2552,-3.2691,-3.2559,-3.2559,-3.2559,-3.2558,0,-3.2699,-3.2726,-3.2674,-3.2689,-3.2719,-3.2675,-3.2705,-3.2687,-3.2672,-3.2683,-3.2635,-3.2647,-3.2598,-3.2606,-3.2577,-3.2602,-3.2602,-3.2588,-3.258,-3.2591,-3.2592,-3.2588,-3.258,-3.2562,-3.2561,-3.256,-3.256,0,-3.2811,-3.2777,-3.2801,-3.277,-3.2764,-3.2786,-3.276,-3.2773,-3.275,-3.2765,-3.2766,-3.2729,-3.2735,-3.2699,-3.2698,-3.2679,-3.2718,-3.2701,-3.2723,-3.2717,-3.2757,-3.2753,-3.2896,-3.2912,-3.2772,-3.2774,-3.2775,0,-3.2873,-3.2893,-3.2865,-3.287,-3.286,-3.2868,-3.2868,-3.2827,-3.2829,-3.2814,-3.283,-3.2832,-3.2831,-3.2844,-3.2817,-3.2817,-3.2798,-3.2849,-3.2798,-3.2809,-3.2797,-3.2795,-3.2797,-3.2858,-3.286,-3.2861,-3.2862,0,-3.2987,-3.297,-3.2972,-3.297,-3.2972,-3.2968,-3.2961,-3.2967,-3.2923,-3.2929,-3.2935,-3.2935,-3.2936,-3.2939,-3.2934,-3.2921,-3.2885,-3.2879,-3.2888,-3.2898,-3.2909,-3.2902,-3.275,-3.2875,-3.2874,-3.2873,-3.2872,-3.2872,-3.3074,-3.3089,-3.3073,-3.3078,-3.3069,-3.3064,-3.3075,-3.3054,-3.3059,-3.3056,-3.3033,-3.3044,-3.303,-3.3019,-3.3011,-3.302,-3.2996,-3.3008,-3.3011,-3.3014,-3.3021,-3.2911,-3.3019,-3.3019,-3.3018,-3.3018,-3.3018,0,-3.3184,-3.3171,-3.3177,-3.3169,-3.3173,-3.3141,-3.3132,-3.3138,-3.3148,-3.3138,-3.314,-3.3148,-3.3152,-3.3127,-3.3128,-3.314,-3.3123,-3.3141,-3.3138,-3.3136,-3.3043,-3.3034,-3.3155,-3.3155,-3.3155,-3.3155,-3.3155,-3.3155,-3.3241,-3.3265,-3.3248,-3.3268,-3.3256,-3.3266,-3.3264,-3.326,-3.3252,-3.3264,-3.3267,-3.3251,-3.3236,-3.3236,-3.3239,-3.3231,-3.3233,-3.3257,-3.3244,-3.3156,-3.3143,-3.313,-3.3121,-3.3258,-3.3258,-3.3336,-3.3336,-3.3337]},{"header":{"parameterUnit":"m.s-1","parameterCategory":1,"la1":30.2991,"la2":30.254,"lo1":-89.0895,"lo2":-89.0444,"dy":0.0017,"dx":0.0017,"nx":28,"ny":28,"refTime":"2025-09-13T03:00:00:Z","depth":0,"parameterNumber":3,"parameterNumberName":"V-component_of_WINDS"},"data":[0,0,0,0,0,0,0,0,0,0,0,0,0,0,0,0,0,0,0,0,0,0,0,0,0,0,0,0,0,0,0,0,0,0,0,0,0,0,0,0,0,0,0,0,0,0,0,0,0,0,0,0,0,0,0,0,0,0,3.1793,3.1793,0,3.1811,3.1811,3.1811,3.1852,3.1853,3.1854,3.1855,3.1871,3.1871,3.1871,0,0,0,0,0,0,0,0,0,0,0,0,0,3.1791,3.1791,3.1793,3.1793,3.1793,3.1811,3.1811,3.1811,3.1852,3.1853,3.1854,3.1855,3.1872,3.1871,3.1871,0,0,0,0,0,0,0,0,0,0,0,0,0,3.1799,3.1791,3.1793,3.1816,3.1818,3.1811,3.1811,3.1812,3.1852,3.1853,3.1854,3.1856,3.1872,3.1871,3.1871,3.1842,0,0,3.1869,3.1869,0,0,0,0,0,0,0,0,3.1798,3.1799,3.1812,3.1814,3.1817,3.1831,3.1817,3.1822,3.1852,3.1839,3.1855,3.1856,3.1857,3.1857,3.1858,3.1843,3.1844,3.1869,3.1869,3.1868,3.1868,0,0,0,0,0,0,0,3.1797,3.1798,3.18,3.1812,3.1815,3.1824,3.1827,3.1818,3.184,3.184,3.1843,3.1845,3.1858,3.1858,3.1859,3.1844,3.1869,3.1869,3.1868,3.1868,3.1805,3.1804,0,0,0,0,0,0,3.1794,3.1797,3.1799,3.18,3.181,3.1823,3.1826,3.1825,3.1841,3.1844,3.1844,3.1847,3.1859,3.1859,3.1859,3.1826,3.1868,3.1868,3.1868,3.1806,3.1805,3.1803,0,0,0,0,0,0,3.1794,3.1794,3.1799,3.18,3.1801,3.1822,3.182,3.1825,3.1825,3.1843,3.1847,3.184,3.186,3.186,3.1846,3.1827,3.1868,3.1867,3.1808,3.1806,3.1804,3.176,0,0,0,0,0,0,3.1793,3.1793,3.1783,3.1799,3.1801,3.1785,3.1819,3.1824,3.1824,3.1828,3.1841,3.1844,3.1861,3.1847,3.1845,3.1827,3.1867,3.181,3.1807,3.1805,3.1763,3.1756,3.1751,0,0,0,0,0,3.1793,3.177,3.1783,3.1783,3.1789,3.1784,3.1785,3.1805,3.1823,3.1812,3.1824,3.1844,3.183,3.1845,3.1844,3.1825,3.1811,3.1808,3.1805,3.1766,3.1758,3.1751,0,0,0,0,0,0,3.175,3.1772,3.1787,3.1768,3.1774,3.1791,3.1779,3.1796,3.1797,3.18,3.1825,3.1827,3.1809,3.1816,3.1832,3.1798,3.1824,3.182,3.1794,3.1787,3.1781,3.1779,3.1866,0,0,0,0,0,3.1739,3.1734,3.1753,3.1735,3.1737,3.1757,3.1756,3.1771,3.1778,3.178,3.1791,3.1797,3.1793,3.1791,3.1789,3.1765,3.1767,3.1751,3.1745,3.174,3.1736,3.1723,3.1716,3.1793,3.1793,3.1793,0,0,3.1715,3.1726,3.1721,3.1726,3.1733,3.1726,3.1759,3.1751,3.1746,3.1779,3.1766,3.1774,3.1782,3.1762,3.1754,3.1767,3.1716,3.1736,3.1732,3.1731,3.1719,3.1712,3.1705,3.1791,3.1791,3.1792,0,0,3.1667,3.1676,3.1661,3.1667,3.1677,3.169,3.1686,3.1701,3.1708,3.1695,3.172,3.1714,3.1708,3.1712,3.1713,3.1667,3.1685,3.1666,3.1634,3.162,3.1614,3.1609,3.1591,3.1584,3.1663,3.1663,3.1662,0,3.1636,3.1628,3.1651,3.1641,3.1642,3.1672,3.1657,3.1661,3.1669,3.1669,3.1684,3.1677,3.1684,3.1665,3.1654,3.1654,3.165,3.1664,3.1613,3.1608,3.1604,3.1587,3.158,3.166,3.166,3.1661,3.1661,0,3.1588,3.1582,3.1569,3.1576,3.1576,3.1563,3.1583,3.158,3.1595,3.1607,3.1593,3.1603,3.1603,3.16,3.1615,3.1583,3.1591,3.1609,3.1635,3.1593,3.1578,3.1572,3.1656,3.1657,3.1658,3.1659,0,0,3.1513,3.1534,3.1528,3.1532,3.1545,3.154,3.1528,3.1529,3.1525,3.153,3.152,3.1514,3.1531,3.1533,3.1548,3.1536,3.1497,3.1556,3.1557,3.1543,3.1461,3.1446,3.1438,3.151,3.1509,3.1508,3.146,0,3.1467,3.1449,3.147,3.1447,3.1441,3.147,3.1459,3.1466,3.1476,3.1472,3.1484,3.1479,3.1502,3.1503,3.1493,3.1504,3.1481,3.1508,3.1499,3.1499,3.1495,3.1431,3.1415,3.1369,3.1454,3.1453,3.1453,0,3.1412,3.1414,3.1391,3.1404,3.1403,3.1393,3.1395,3.1391,3.1398,3.1407,3.1408,3.1427,3.1415,3.1442,3.1425,3.1443,3.1441,3.1446,3.1445,3.1443,3.1472,3.1426,3.1355,3.1348,3.1444,3.1444,3.1445,0,3.1358,3.1355,3.1341,3.1343,3.1359,3.1351,3.1357,3.1366,3.1365,3.1367,3.1366,3.1366,3.1365,3.1364,3.1382,3.14,3.1363,3.1391,3.1368,3.1368,3.1358,3.1358,3.1284,3.1359,3.1359,3.1359,3.1359,0,3.1304,3.1288,3.1317,3.1307,3.129,3.1314,3.1296,3.1305,3.1312,3.1305,3.133,3.1322,3.1346,3.134,3.1354,3.1338,3.1338,3.1343,3.1347,3.134,3.1339,3.1338,3.1341,3.1357,3.1358,3.1358,3.1358,0,3.1241,3.1259,3.1245,3.1261,3.1265,3.1251,3.1265,3.1257,3.1269,3.1259,3.1258,3.1277,3.1271,3.1289,3.1287,3.1296,3.1271,3.1281,3.1269,3.1271,3.1247,3.1248,3.1169,3.1159,3.1241,3.124,3.1239,0,3.1204,3.1193,3.1208,3.1205,3.121,3.1205,3.1204,3.1227,3.1224,3.1232,3.1222,3.1219,3.1217,3.1207,3.122,3.1218,3.1226,3.1199,3.1226,3.122,3.1224,3.1224,3.1222,3.1192,3.1191,3.1191,3.119,0,3.1138,3.1148,3.1146,3.1147,3.1145,3.1147,3.115,3.1146,3.117,3.1166,3.1161,3.116,3.1158,3.1153,3.1154,3.1159,3.1178,3.1181,3.1176,3.1168,3.1161,3.1163,3.1252,3.1183,3.1184,3.1184,3.1184,3.1185,3.1086,3.1077,3.1086,3.1083,3.1088,3.109,3.1083,3.1094,3.1091,3.1091,3.1104,3.1096,3.1103,3.1106,3.1109,3.1102,3.1115,3.1107,3.1105,3.1103,3.1098,3.1163,3.1103,3.1103,3.1103,3.1103,3.1104,0,3.102,3.1027,3.1024,3.1028,3.1025,3.1044,3.1049,3.1045,3.1038,3.1043,3.1041,3.1034,3.103,3.1043,3.1041,3.1033,3.1041,3.1031,3.1031,3.1032,3.1087,3.1092,3.1024,3.1024,3.1024,3.1024,3.1024,3.1024,3.0985,3.097,3.0981,3.0968,3.0975,3.0968,3.0969,3.0971,3.0975,3.0967,3.0964,3.0972,3.098,3.0978,3.0975,3.0979,3.0976,3.0963,3.0969,3.102,3.1028,3.1035,3.104,3.0962,3.0962,3.0914,3.0914,3.0913]}]]